Weather History for Caldwell, NJ

Change the Weather History Date:

Thursday, June 20, 2013

  Actual Average Record
Temperature  
Mean Temperature 68 °F -  
Max Temperature 81 °F 81 °F 97 °F (2012)
Min Temperature 55 °F 59 °F 50 °F (1970)
Cooling Degree Days 2    
Growing Degree Days 18 (Base 50)    
Moisture  
Dew Point 54 °F    
Average Humidity 62    
Maximum Humidity 93    
Minimum Humidity 38    
Precipitation  
Precipitation 0.00 in - - ()
Sea Level Pressure  
Sea Level Pressure 30.25 in    
Wind  
Wind Speed 2 mph (SW)    
Max Wind Speed 8 mph    
Max Gust Speed -    
Visibility 10 miles    
Events      
Averages and records for this station are not official NWS values.
T = Trace of Precipitation, MM = Missing Value Source: NWS Daily Summary

Daily Weather History Graph

Daily Weather History Graph

Search for Another Location

Airport:

Trip Planner

Search our weather history database for the weather conditions in past years. The results will help you decide how hot, cold, wet, or windy it might be!

Date:

Astronomy

Jun. 20, 2013 Rise Set
Actual Time 5:25 AM EDT 8:32 PM EDT
Civil Twilight 4:51 AM EDT 9:05 PM EDT
Nautical Twilight 4:08 AM EDT 9:48 PM EDT
Astronomical Twilight 3:18 AM EDT 10:39 PM EDT
Moon 5:30 PM EDT (6/20) 2:50 AM EDT (6/20)
Length of Visible Light 16h 13m
Length of Day
15h 06m
Waxing Gibbous, 89% of the Moon is Illuminated
Jun 20
Waxing Gibbous
Jun 23
Full
Jun 30
Last Quarter
Jul 8
New
Jul 15
First Quarter

Hourly Weather History & Observations

Time (EDT) Temp. Dew Point Humidity Pressure Visibility Wind Dir Wind Speed Gust Speed Precip Events Conditions
12:53 AM 60.1 °F 55.0 °F 83% 30.20 in 10.0 mi Calm Calm - N/A   Clear
1:53 AM 59.0 °F 55.0 °F 87% 30.21 in 10.0 mi Calm Calm - N/A   Clear
2:53 AM 57.0 °F 55.0 °F 93% 30.22 in 10.0 mi Calm Calm - N/A   Scattered Clouds
3:53 AM 57.0 °F 54.0 °F 89% 30.22 in 10.0 mi Calm Calm - N/A   Mostly Cloudy
4:53 AM 55.9 °F 54.0 °F 93% 30.23 in 10.0 mi Calm Calm - N/A   Clear
5:53 AM 55.0 °F 53.1 °F 93% 30.25 in 10.0 mi Calm Calm - N/A   Clear
6:53 AM 57.9 °F 55.0 °F 90% 30.27 in 10.0 mi Calm Calm - N/A   Clear
7:53 AM 61.0 °F 55.0 °F 81% 30.29 in 10.0 mi Calm Calm - N/A   Clear
8:53 AM 64.9 °F 54.0 °F 68% 30.28 in 10.0 mi Calm Calm - N/A   Clear
9:53 AM 69.1 °F 54.0 °F 58% 30.28 in 10.0 mi West 3.5 mph - N/A   Clear
10:53 AM 73.0 °F 55.9 °F 55% 30.29 in 10.0 mi SSW 8.1 mph - N/A   Clear
11:53 AM 75.0 °F 55.0 °F 50% 30.29 in 10.0 mi Variable 3.5 mph - N/A   Clear
12:53 PM 77.0 °F 51.1 °F 40% 30.27 in 10.0 mi Variable 3.5 mph - N/A   Scattered Clouds
1:53 PM 79.0 °F 51.1 °F 38% 30.27 in 10.0 mi WSW 8.1 mph - N/A   Clear
2:53 PM 79.0 °F 51.1 °F 38% 30.25 in 10.0 mi Variable 6.9 mph - N/A   Partly Cloudy
3:53 PM 79.0 °F 51.1 °F 38% 30.25 in 10.0 mi Calm Calm - N/A   Mostly Cloudy
4:53 PM 80.1 °F 52.0 °F 38% 30.24 in 10.0 mi West 3.5 mph - N/A   Clear
5:53 PM 79.0 °F 54.0 °F 42% 30.24 in 10.0 mi SW 6.9 mph - N/A   Partly Cloudy
6:53 PM 79.0 °F 54.0 °F 42% 30.24 in 10.0 mi SW 4.6 mph - N/A   Partly Cloudy
7:53 PM 77.0 °F 55.0 °F 47% 30.24 in 10.0 mi WSW 3.5 mph - N/A   Clear
8:53 PM 73.0 °F 55.9 °F 55% 30.25 in 10.0 mi South 3.5 mph - N/A   Clear
9:53 PM 72.0 °F 55.0 °F 55% 30.26 in 10.0 mi South 6.9 mph - N/A   Clear
10:53 PM 69.1 °F 53.1 °F 57% 30.27 in 10.0 mi Variable 4.6 mph - N/A   Clear
11:53 PM 68.0 °F 53.1 °F 59% 30.28 in 10.0 mi SW 4.6 mph - N/A   Clear